Regional Weather Roundup
Issued by NWS

Home | Current Version | Previous Version | Graphics & Text | Print | Product List | Glossary On
Versions: 1 2 3 4 5 6 7 8 9 10 11 12 13 14 15 16 17 18 19 20 21 22 23 24 25 26 27 28 29 30 31 32 33 34 35 36 37 38 39 40 41 42 43 44 45 46 47 48 49 50
000
ASUS43 KIND 022009
RWRIN

WEATHER ROUNDUP FOR INDIANA
NATIONAL WEATHER SERVICE INDIANAPOLIS IN
400 PM EDT WED SEP 02 2015

NOTE: "FAIR" INDICATES FEW OR NO CLOUDS BELOW 12,000 FEET WITH NO
SIGNIFICANT WEATHER AND/OR OBSTRUCTIONS TO VISIBILITY.

* - STATION DOES NOT REPORT WEATHER SUCH AS PRECIPITATION OR FOG.

+ - STATION NOT QUALITY CONTROLLED BY THE NATIONAL WEATHER SERVICE.
    USE DATA WITH CAUTION...ESPECIALLY DEWPOINT AND RELATIVE
    HUMIDITY OBSERVATIONS.

INZ001>003-010>013-019-020-022100-
NORTHWEST INDIANA

CITY           SKY/WX    TMP DP  RH WIND       PRES   REMARKS
GARY /AIRPORT/ PTSUNNY   90  64  43 SW9       30.01F
KNOX *+        MOSUNNY   88  66  48 SW8       30.01F
LA PORTE +     MOSUNNY   90  69  50 SW8       30.03F HX  95
MICHIGAN CITY+ MOSUNNY   88  64  45 SW10      30.02F
MONTICELLO +   MOSUNNY   89  71  54 W10       30.02F HX  95
RENSSELAER +   MOSUNNY   88  70  55 SW7       30.03F
VALPARAISO     MOSUNNY   89  70  53 W8        30.02F

$$

LMZ046-743>745-022100-
SOUTHERN LAKE MICHIGAN

STATION/POSITION TIME  TEMP    WIND        PRES    WAVE
                       AIR SEA DIR/SP/G            HT
                 (UTC) (F)     (DEG/KT/KT) (MB)    (FT)
BURNS HARBOR     1900   87     220/ 11/ 14 1016.6F
MICHIGAN CITY    1900   85        CALM       N/A
5NW MICH CITY    2000   83 77   50/  4/  4   N/A     0

$$

INZ004-005-014>016-021>024-022100-
NORTH CENTRAL INDIANA

CITY           SKY/WX    TMP DP  RH WIND       PRES   REMARKS
ELKHART        MOSUNNY   90  68  48 W8        30.03F
GOSHEN         SUNNY     88  69  53 W12       30.02F
LOGANSPORT +   PTSUNNY   86  61  42 W7        30.04F
PERU/GRISSOM   SUNNY     90  68  48 W10       30.02F
ROCHESTER +    SUNNY     91  66  43 W8        30.03F
SOUTH BEND     MOSUNNY   88  67  49 W10       30.03F
WARSAW +       MOSUNNY   90  70  51 W8        30.03F HX  95

$$

INZ006>009-017-018-025>027-022100-
NORTHEAST INDIANA

CITY           SKY/WX    TMP DP  RH WIND       PRES   REMARKS
ANGOLA *+      MOSUNNY   90  70  51 W12       30.02F HX  95
AUBURN +       SUNNY     88  64  45 W9        30.03F
FORT WAYNE     PTSUNNY   88  69  53 W10       30.03F
HUNTINGTON +   MOSUNNY   89  62  40 W14       30.02F

$$

INZ028-029-035-036-043>045-051>053-022100-
WEST CENTRAL INDIANA

CITY           SKY/WX    TMP DP  RH WIND       PRES   REMARKS
CRAWFORDSVL +  MOSUNNY   86  63  45 SW5       30.05F
GREENCASTLE +  MOSUNNY   88  64  45 W6        30.06F
LAFAYETTE      MOSUNNY   88  67  49 SW7       30.03F
TERRE HAUTE    MOSUNNY   88  67  49 SW8       30.05F

$$

INZ030>032-037>040-046>048-054>057-064-065-022100-
CENTRAL INDIANA

CITY           SKY/WX    TMP DP  RH WIND       PRES   REMARKS
ANDERSON       MOSUNNY   88  59  37 SW7       30.06F
COLUMBUS       MOSUNNY   86  64  48 SW8       30.05F
FISHERS *+     PTSUNNY   86  72  62 CALM      30.04
FRANKFORT +    MOSUNNY   90  69  50 SW9       30.07F
GREENWOOD *+   MOSUNNY   88  64  45 SW6       30.06F
INDIANAPOLIS   PTSUNNY   87  67  51 SW13      30.05F
-EAGLE CREEK   SUNNY     87  67  51 VRB5      30.04F
KOKOMO *+      MOSUNNY   90  68  48 SW13G18   30.04F
MARION +       PTSUNNY   88  56  33 W6        30.04F
MT COMFORT *+  MOSUNNY   88  55  33 SW8       30.05F
SHELBYVILLE    MOSUNNY   90  68  48 W7        30.04F
ZIONSVILLE +   MOSUNNY   89  66  47 W7        30.06F

$$

INZ033-034-041-042-049-050-058-059-022100-
EAST CENTRAL INDIANA

CITY           SKY/WX    TMP DP  RH WIND       PRES   REMARKS
MUNCIE         MOSUNNY   86  69  56 W10       30.05F

$$

INZ060-061-067>069-081>083-085>088-022100-
SOUTHWEST INDIANA

CITY           SKY/WX    TMP DP  RH WIND       PRES   REMARKS
EVANSVILLE     SUNNY     91  63  39 VRB3      30.05F
HUNTINGBURG *+ MOSUNNY   91  64  40 S7        30.06F
WASHINGTON +   MOSUNNY   90  60  36 SW5       30.05F

$$

INZ062-063-066-070>080-084-089>092-022100-
SOUTH CENTRAL AND SOUTHEAST INDIANA

CITY           SKY/WX    TMP DP  RH WIND       PRES   REMARKS
BLOOMINGTON    SUNNY     88  68  51 W7        30.07F
NORTH VERNON + SUNNY     90  64  43 W7        30.07F
SEYMOUR +      MOSUNNY   93  64  38 CALM      30.05F HX  95

$$



USA.gov is the U.S. government's official web portal to all federal, state and local government web resources and services.